Miscellaneous Local Product
Issued by NWS North Platte, NE

Home | Current Version | Previous Version | Text Only | Print | Product List | Glossary On
Versions: 1 2 3 4 5 6 7 8 9 10 11 12 13 14 15 16 17 18 19 20 21 22 23 24 25 26 27 28 29 30 31 32 33 34 35 36 37 38 39 40 41 42 43 44 45 46 47 48 49 50
000
AXUS43 KLBF 120310
MISLBF


WESTERN AND NORTH CENTRAL NEBRASKA HOURLY WEATHER ROUNDUP
NATIONAL WEATHER SERVICE NORTH PLATTE NE
900 PM CST MON DEC 11 2017

NOTE: "FAIR" INDICATES FEW OR NO CLOUDS BELOW 12,000 FEET WITH NO
SIGNIFICANT WEATHER AND/OR OBSTRUCTIONS TO VISIBILITY.

NOTE: STATIONS NOT REPORTING VARIABLES SUCH AS SKY/WEATHER OR
PRESSURE ARE PROVIDED BY RAWS AND APRS NETWORKS AND ARE NOT UNDER
NATIONAL WEATHER SERVICE QUALITY CONTROL.

...OBSERVATIONS IN AND NEAR THE EASTERN PANHANDLE OF NEBRASKA...

CITY           SKY/WX    TMP DP  RH WIND       PRES   REMARKS
PINE RIDGE     CLEAR     26  23  88 SW3       30.40S
GORDON         FAIR      27  23  84 N7        30.38F WCI  20
CHADRON        CLOUDY    20  13  74 S5        30.42R WCI  13
ALLIANCE       CLOUDY    20  12  71 NW8       30.40R WCI  10
SIDNEY         CLOUDY    27  10  49 N9        30.41R WCI  18
CRESCENT LAKE    N/A     27  18  67 NW6         N/A  WCI  21
$$

...OBSERVATIONS IN NORTHERN NEBRASKA AND FAR SOUTHERN SOUTH DAKOTA...

CITY           SKY/WX    TMP DP  RH WIND       PRES   REMARKS
WINNER         CLOUDY    36  31  82 NW10      30.37R WCI  28
VALENTINE      CLOUDY    38  29  70 NW6       30.37R WCI  33
THEDFORD       CLOUDY    39  29  67 N10G16    30.38R WCI  32
AINSWORTH      CLOUDY    34  33  94 N9        30.37R WCI  27
O`NEILL        CLEAR     31  27  85 NW10      30.34R WCI  22
ORD            CLOUDY    36  32  85 N13G20    30.34S WCI  27
BROKEN BOW     CLOUDY    38  31  76 N14       30.35R WCI  30
VALENTINE NWR    N/A     36  27  71 N14         N/A  WCI  27
HALSEY           N/A     38  28  66 N7G14       N/A  WCI  33
BUTTE            N/A     28  24  86 N6G13       N/A  WCI  22
EWING            N/A     31  25  79 N3          N/A
$$

...OBSERVATIONS IN SOUTHWEST NEBRASKA AND FAR NORTHEAST COLORADO...

CITY           SKY/WX    TMP DP  RH WIND       PRES   REMARKS
WRAY           FAIR      32  10  40 N7        30.43R WCI  26
HOLYOKE        FAIR      32  12  43 S3        30.42R
IMPERIAL       CLEAR     31  20  63 NW8       30.40R WCI  23
OGALLALA       CLEAR     23  16  74 W8        30.40R WCI  13
NORTH PLATTE   CLEAR     25  20  81 W8        30.38S WCI  16
MCCOOK         CLEAR     30  22  72 NW9       30.39R WCI  22
LEXINGTON      CLOUDY    34  27  76 NW7       30.37R WCI  28
STAPLETON        N/A     30  23  75 CALM        N/A
GOTHENBURG       N/A     32  24  71 W3          N/A
CALLAWAY         N/A     39  30  71 N10         N/A  WCI  32
$$

...OBSERVATIONS IN CENTRAL LINCOLN COUNTY AREA...

CITY           SKY/WX    TMP DP  RH WIND       PRES   REMARKS
N.P. AIRPORT   CLEAR     25  20  81 W8        30.38S WCI  16
N.P. DOWNTOWN    N/A     32  24  73 CALM        N/A
N.P. SOUTHEAST   N/A     34  25  68 N7G15       N/A  WCI  28
N.P. HILLCREST   N/A     33  26  75 NW14        N/A  WCI  23
$$

...SOME OBSERVATIONS FROM AROUND THE REGION...

CITY           SKY/WX    TMP DP  RH WIND       PRES   REMARKS
DENVER         CLOUDY    40   8  26 SE3       30.45R
GRAND JUNCTION CLOUDY    29   1  30 E5        30.47R WCI  24
LARAMIE        CLOUDY    23  12  62 SE8       30.44S WCI  14
CHEYENNE       CLOUDY    34  14  43 N12       30.42S WCI  25
CASPER         CLOUDY    27  18  69 W12       30.44R WCI  17
BISMARCK       PTCLDY    21  16  81 SW3       30.34F
RAPID CITY     CLOUDY    25  20  81 N10       30.39R WCI  15
PIERRE         CLOUDY    31  27  85 NW10      30.36S WCI  22
SIOUX FALLS    CLEAR     20  15  81 N15       30.32R WCI   6
OMAHA          CLEAR     32  21  64 NW21      30.26R WCI  20
GRAND ISLAND   CLOUDY    39  27  62 N20G29    30.34R WCI  29
SCOTTSBLUFF    CLEAR     27  13  55 NW9       30.41S WCI  18
KANSAS CITY    CLOUDY    40  27  59 N18G30    30.20R WCI  31
HILL CITY      CLEAR     36  26  67 W3        30.38S
WICHITA        PTCLDY    45  29  53 N25G35    30.29R
DODGE CITY     CLEAR     40  18  41 N10       30.36R WCI  33
OKLAHOMA CITY  CLEAR     46  20  35 N9        30.24R
DALLAS         PTCLDY    64  18  17 NW13      30.14R
AMARILLO       CLOUDY    42  13  30 N8        30.38R
$$




USA.gov is the U.S. government's official web portal to all federal, state and local government web resources and services.